Worthington, MN

3:12 AM CST on December 07, 2019 (GMT -0600)
Worthington Municipal

Weather History for KOTG - October, 2019

Change the Weather History Date:

Friday, October 4, 2019

  Actual Average Record
Temperature  
Mean Temperature 45 °F -  
Max Temperature 52 °F 62 °F 85 °F (1976)
Min Temperature 39 °F 41 °F 26 °F (1980)
Degree Days  
Heating Degree Days 20    
Moisture  
Dew Point 38 °F    
Average Humidity 78    
Maximum Humidity 89    
Minimum Humidity 66    
Precipitation  
Precipitation 0.00 in - - ()
Sea Level Pressure  
Sea Level Pressure 30.34 in    
Wind  
Wind Speed 8 mph (ESE)    
Max Wind Speed 16 mph    
Max Gust Speed 23 mph    
Visibility 10 miles    
Events Rain    
Averages and records for this station are not official NWS values.
T = Trace of Precipitation, MM = Missing Value Source: NWS Daily Summary

Daily Weather History Graph

Daily Weather History Graph

Search for Another Location

Airport or City:

Astronomy

Oct. 04, 2019 Rise Set
Actual Time 7:23 AM CDT 6:58 PM CDT
Civil Twilight 6:54 AM CDT 7:26 PM CDT
Nautical Twilight 6:21 AM CDT 8:00 PM CDT
Astronomical Twilight 5:47 AM CDT 8:33 PM CDT
Moon 2:06 PM CDT (10/4) 11:17 PM CDT (10/4)
Length of Visible Light 12h 32m
Length of Day
11h 35m
Waxing Crescent, 40% of the Moon is Illuminated
Oct 4
Waxing Crescent
Oct 5
First Quarter
Oct 13
Full
Oct 21
Last Quarter
Oct 27
New

Hourly Weather History & Observations

Time (CDT) Temp. Windchill Dew Point Humidity Pressure Visibility Wind Dir Wind Speed Gust Speed Precip Events Conditions
12:56 AM 41.0 °F 35.2 °F 36.0 °F 82% 30.44 in 10.0 mi ENE 9.2 mph - N/A   Overcast
1:10 AM 39.2 °F 35.9 °F 35.6 °F 87% 30.40 in 10.0 mi ENE 4.6 mph - N/A   Overcast
1:56 AM 39.9 °F - 36.0 °F 86% 30.45 in 10.0 mi Calm Calm - N/A   Overcast
2:56 AM 39.9 °F 36.7 °F 35.1 °F 83% 30.46 in 10.0 mi East 4.6 mph - N/A   Overcast
3:56 AM 39.0 °F 34.0 °F 36.0 °F 89% 30.46 in 10.0 mi SE 6.9 mph - N/A   Overcast
4:56 AM 39.0 °F 35.7 °F 35.1 °F 86% 30.46 in 10.0 mi East 4.6 mph - N/A   Overcast
5:56 AM 39.0 °F 34.8 °F 36.0 °F 89% 30.46 in 10.0 mi East 5.8 mph - N/A   Overcast
6:56 AM 39.0 °F 34.8 °F 36.0 °F 89% 30.46 in 10.0 mi SE 5.8 mph - N/A   Overcast
7:32 AM 39.2 °F 33.6 °F 35.6 °F 87% 30.41 in 10.0 mi SE 8.1 mph - N/A   Overcast
7:56 AM 39.9 °F 35.8 °F 35.1 °F 83% 30.46 in 10.0 mi SSE 5.8 mph - N/A   Overcast
8:56 AM 41.0 °F 35.2 °F 36.0 °F 82% 30.45 in 10.0 mi SE 9.2 mph - N/A   Overcast
9:56 AM 43.0 °F 36.8 °F 36.0 °F 76% 30.44 in 10.0 mi SE 11.5 mph - N/A   Overcast
10:56 AM 44.1 °F 37.1 °F 37.0 °F 76% 30.43 in 10.0 mi SE 15.0 mph - N/A   Overcast
11:56 AM 44.1 °F 39.0 °F 37.0 °F 76% 30.43 in 10.0 mi SE 9.2 mph - N/A   Overcast
12:56 PM 46.0 °F 40.2 °F 37.9 °F 73% 30.40 in 10.0 mi SE 12.7 mph - N/A   Overcast
1:56 PM 46.9 °F - 39.0 °F 74% 30.36 in 10.0 mi ESE 10.4 mph - N/A   Overcast
2:56 PM 48.0 °F - 39.0 °F 71% 30.33 in 10.0 mi ESE 11.5 mph 18.4 mph N/A   Mostly Cloudy
3:23 PM 50.0 °F - 39.2 °F 66% 30.27 in 10.0 mi SE 15.0 mph 20.7 mph N/A   Scattered Clouds
3:56 PM 51.1 °F - 39.9 °F 66% 30.27 in 10.0 mi ESE 12.7 mph - N/A   Clear
4:56 PM 51.1 °F - 41.0 °F 68% 30.25 in 10.0 mi SE 12.7 mph - N/A   Clear
5:56 PM 51.1 °F - 41.0 °F 68% 30.23 in 10.0 mi ESE 13.8 mph 18.4 mph N/A   Overcast
6:56 PM 51.1 °F - 41.0 °F 68% 30.21 in 10.0 mi SE 11.5 mph - N/A   Overcast
7:56 PM 51.1 °F - 42.1 °F 71% 30.19 in 10.0 mi ESE 11.5 mph - N/A   Overcast
8:56 PM 51.1 °F - 42.1 °F 71% 30.16 in 10.0 mi ESE 12.7 mph 17.3 mph N/A   Overcast
9:56 PM 51.1 °F - 43.0 °F 74% 30.12 in 10.0 mi SE 16.1 mph 23.0 mph 0.00 in Rain Light Rain
10:56 PM 51.1 °F - 44.1 °F 77% 30.11 in 10.0 mi SE 10.4 mph - 0.00 in   Overcast
11:56 PM 50.0 °F - 45.0 °F 83% 30.07 in 10.0 mi SE 15.0 mph 23.0 mph 0.00 in Rain Light Rain